M I D A S
Marine Information and Data Acquisition System
Tripno 1286 of the Zeeleeuw from 2007-06-13 04:51:31 to 2007-06-13 16:40:16
Back to CruiseResearch ActivitiesStationsMapUnderway DataData graphs

EquipmentUnitsComment
TimeDGPSUTC
LatitudeDGPSDM.mWGS84
LongitudeDGPSDM.mWGS84
HeadingGyrodeg 
SOGDGPSknotsSpeed over ground
COGDGPSdegCourse over ground
DepthEcho soundermeters200 kHz
Missing or incorrect values are displayed as -999
Navigation data collected by the RV Zeeleeuw from 2007-06-13 04:51:50 to 2007-06-13 16:52:21
                                                                                    Next 1000 lines
Time Latitude Longitude Heading SOG COG Depth
2007-06-13 04:52:00 51°13.598 2°56.092 114.1 0.6 293 6.8
2007-06-13 04:52:05 51°13.598 2°56.09 113.9 0.8 294 6.8
2007-06-13 04:52:10 51°13.598 2°56.088 113.9 1.1 292 6.8
2007-06-13 04:52:15 51°13.599 2°56.085 114 1.3 294 6.9
2007-06-13 04:52:20 51°13.6 2°56.082 114.3 1.5 296 6.9
2007-06-13 04:52:25 51°13.601 2°56.079 114.6 1.7 295 4.8
2007-06-13 04:52:30 51°13.602 2°56.076 114.7 1.8 294 -999
2007-06-13 04:52:35 51°13.603 2°56.072 114.9 2 294 -999
2007-06-13 04:52:40 51°13.605 2°56.068 114.9 2 294 -999
2007-06-13 04:52:45 51°13.606 2°56.064 114.9 2.1 293 -999
2007-06-13 04:52:50 51°13.607 2°56.059 115 2.1 292 -999
2007-06-13 04:52:55 51°13.608 2°56.055 115.2 2.1 295 -999
2007-06-13 04:53:00 51°13.609 2°56.051 115.5 2 293 -999
2007-06-13 04:53:05 51°13.61 2°56.047 115.6 1.9 292 -999
2007-06-13 04:53:10 51°13.611 2°56.044 115.6 1.5 294 -999
2007-06-13 04:53:15 51°13.612 2°56.041 115.9 1.1 293 -999
2007-06-13 04:53:20 51°13.612 2°56.04 116.4 0.5 300 -999
2007-06-13 04:53:25 51°13.612 2°56.04 117.6 0.1 275 -999
2007-06-13 04:53:30 51°13.612 2°56.041 119.4 0.4 116 -999
2007-06-13 04:53:35 51°13.611 2°56.042 121.2 0.7 124 -999
2007-06-13 04:53:40 51°13.611 2°56.044 122.6 0.9 117 4.9
2007-06-13 04:53:45 51°13.61 2°56.046 124.1 1 122 4.8
2007-06-13 04:53:50 51°13.609 2°56.048 125.8 1.2 120 -999
2007-06-13 04:53:55 51°13.608 2°56.05 128 1.4 124 4.7
2007-06-13 04:54:00 51°13.607 2°56.053 129.6 1.6 123 9.2
2007-06-13 04:54:05 51°13.606 2°56.056 131.2 1.7 125 9.1
2007-06-13 04:54:10 51°13.604 2°56.06 132.3 1.9 126 9.2
2007-06-13 04:54:15 51°13.602 2°56.063 133.5 2 128 8.6
2007-06-13 04:54:20 51°13.6 2°56.067 134.6 2.2 130 8.5
2007-06-13 04:54:25 51°13.598 2°56.071 135.7 2.3 131 8.1
2007-06-13 04:54:30 51°13.596 2°56.075 137.1 2.5 133 8.7
2007-06-13 04:54:35 51°13.593 2°56.079 138.4 2.6 134 8.9
2007-06-13 04:54:40 51°13.591 2°56.083 139.4 2.7 135 8.9
2007-06-13 04:54:45 51°13.588 2°56.087 140.2 2.8 136 8.9
2007-06-13 04:54:50 51°13.585 2°56.092 140.8 3 137 8.9
2007-06-13 04:54:55 51°13.582 2°56.096 141.2 3.1 138 9.2
2007-06-13 04:55:00 51°13.578 2°56.101 141.5 3.2 139 9.4
2007-06-13 04:55:05 51°13.575 2°56.106 141.6 3.3 139 9.5
2007-06-13 04:55:10 51°13.571 2°56.11 141.7 3.3 139 9.6
2007-06-13 04:55:15 51°13.568 2°56.115 141.5 3.3 139 9.6
2007-06-13 04:55:20 51°13.564 2°56.12 141.1 3.4 138 9.8
2007-06-13 04:55:25 51°13.56 2°56.125 140.6 3.5 138 9.9
2007-06-13 04:55:30 51°13.557 2°56.13 140.2 3.5 138 10
2007-06-13 04:55:35 51°13.554 2°56.136 139.9 3.5 136 10
2007-06-13 04:55:40 51°13.55 2°56.141 139.4 3.4 135 9.9
2007-06-13 04:55:45 51°13.547 2°56.146 137.9 3.3 132 9.8
2007-06-13 04:55:50 51°13.544 2°56.152 134.8 3.2 129 9.9
2007-06-13 04:55:55 51°13.542 2°56.158 130.9 3.2 123 9.8
2007-06-13 04:56:00 51°13.54 2°56.164 126.7 3.1 120 10
2007-06-13 04:56:05 51°13.538 2°56.17 122.4 3 115 10
2007-06-13 04:56:10 51°13.536 2°56.176 118 2.9 111 10
2007-06-13 04:56:15 51°13.535 2°56.182 113.6 2.9 106 10
2007-06-13 04:56:20 51°13.535 2°56.188 109.2 2.7 102 10
2007-06-13 04:56:25 51°13.534 2°56.194 104.8 2.6 98 10
2007-06-13 04:56:30 51°13.534 2°56.199 101.3 2.6 96 -999
2007-06-13 04:56:35 51°13.534 2°56.205 98.7 2.5 93 9.8
2007-06-13 04:56:40 51°13.534 2°56.211 96.4 2.5 89 9.7
2007-06-13 04:56:45 51°13.534 2°56.216 93.9 2.6 87 9.5
2007-06-13 04:56:50 51°13.534 2°56.222 90.7 2.5 83 9.3
2007-06-13 04:56:55 51°13.535 2°56.227 87.4 2.4 79 9.4
2007-06-13 04:57:00 51°13.536 2°56.232 82.7 2.3 76 9
2007-06-13 04:57:05 51°13.537 2°56.237 80 2 74 8.5
2007-06-13 04:57:10 51°13.538 2°56.24 78 1.6 74 8.4
2007-06-13 04:57:15 51°13.539 2°56.242 75.5 1.2 68 8.2
2007-06-13 04:57:20 51°13.539 2°56.244 72.2 0.8 68 8.2
2007-06-13 04:57:25 51°13.54 2°56.245 69 0.3 60 8.4
2007-06-13 04:57:30 51°13.54 2°56.245 66.7 -999 198 8.3
2007-06-13 04:57:35 51°13.539 2°56.244 64.9 0.4 245 8.4
2007-06-13 04:57:40 51°13.539 2°56.243 63.7 0.7 239 8.3
2007-06-13 04:57:45 51°13.538 2°56.241 63 0.9 242 8.2
2007-06-13 04:57:50 51°13.537 2°56.239 62.1 1.1 240 8.3
2007-06-13 04:57:55 51°13.537 2°56.237 61.3 1.1 244 -999
2007-06-13 04:58:00 51°13.536 2°56.235 60.8 1 243 -999
2007-06-13 04:58:05 51°13.535 2°56.233 60.7 0.9 248 -999
2007-06-13 04:58:10 51°13.535 2°56.232 60.4 0.6 240 -999
2007-06-13 04:58:15 51°13.535 2°56.231 58.9 0.2 276 -999
2007-06-13 04:58:20 51°13.535 2°56.231 56.8 0.2 31 -999
2007-06-13 04:58:25 51°13.535 2°56.232 53.4 0.5 36 8.8
2007-06-13 04:58:30 51°13.536 2°56.233 50 0.8 40 -999
2007-06-13 04:58:35 51°13.537 2°56.234 44.8 1 34 -999
2007-06-13 04:58:40 51°13.539 2°56.235 40.3 1.1 35 -999
2007-06-13 04:58:45 51°13.54 2°56.237 35.8 1.1 27 -999
2007-06-13 04:58:50 51°13.541 2°56.238 31.9 1 27 -999
2007-06-13 04:58:55 51°13.542 2°56.238 29.2 0.9 22 -999
2007-06-13 04:59:00 51°13.543 2°56.239 27 0.5 32 -999
2007-06-13 04:59:05 51°13.543 2°56.239 24.5 0.1 25 -999
2007-06-13 04:59:10 51°13.543 2°56.239 22.5 0.4 178 4.7
2007-06-13 04:59:15 51°13.542 2°56.239 20.5 0.9 192 -999
2007-06-13 04:59:20 51°13.54 2°56.238 18.8 1.2 188 4.7
2007-06-13 04:59:25 51°13.538 2°56.238 17.7 1.6 191 5
2007-06-13 04:59:30 51°13.535 2°56.237 16.6 1.8 188 8.3
2007-06-13 04:59:35 51°13.533 2°56.236 15.3 1.9 188 -999
2007-06-13 04:59:40 51°13.53 2°56.236 14 1.8 185 -999
2007-06-13 04:59:45 51°13.528 2°56.235 13.7 1.7 189 -999
2007-06-13 04:59:50 51°13.526 2°56.235 13.8 1.3 185 -999
2007-06-13 04:59:55 51°13.524 2°56.235 13.9 1.2 190 -999
2007-06-13 05:00:00 51°13.523 2°56.234 13.1 1.1 189 -999
2007-06-13 05:00:05 51°13.521 2°56.234 12.7 1 190 -999
2007-06-13 05:00:10 51°13.52 2°56.234 12.3 0.9 191 -999
2007-06-13 05:00:15 51°13.519 2°56.233 12 0.7 195 -999
2007-06-13 05:00:20 51°13.518 2°56.233 11.7 0.5 191 5.6
2007-06-13 05:00:25 51°13.518 2°56.233 11.1 0.3 196 -999
2007-06-13 05:00:30 51°13.518 2°56.233 9.8 0.1 230 9.9
2007-06-13 05:00:35 51°13.518 2°56.233 8 0.1 257 10
2007-06-13 05:00:40 51°13.518 2°56.233 6.6 0.1 333 10
2007-06-13 05:00:45 51°13.519 2°56.233 5.2 0.3 343 10
2007-06-13 05:00:50 51°13.519 2°56.233 3 0.6 352 9.9
2007-06-13 05:00:55 51°13.521 2°56.232 1.2 0.9 348 9.9
2007-06-13 05:01:00 51°13.522 2°56.232 356.9 1.3 347 -999
2007-06-13 05:01:05 51°13.525 2°56.23 352.7 1.7 341 4.9
2007-06-13 05:01:10 51°13.527 2°56.229 347.4 2.1 337 9.6
2007-06-13 05:01:15 51°13.53 2°56.226 342.6 2.5 330 4.7
2007-06-13 05:01:20 51°13.533 2°56.222 335.8 2.8 323 9.8
2007-06-13 05:01:25 51°13.536 2°56.217 328.5 3.1 315 9.3
2007-06-13 05:01:30 51°13.539 2°56.211 321.1 3.3 311 9.1
2007-06-13 05:01:35 51°13.542 2°56.205 315.7 3.4 305 9
2007-06-13 05:01:40 51°13.545 2°56.198 309.9 3.8 302 9.1
2007-06-13 05:01:45 51°13.548 2°56.19 305.9 4 299 9
2007-06-13 05:01:50 51°13.55 2°56.182 303 4.3 297 9
2007-06-13 05:01:55 51°13.553 2°56.173 300.8 4.5 297 9
2007-06-13 05:02:00 51°13.556 2°56.164 299.6 4.7 296 8.7
2007-06-13 05:02:05 51°13.559 2°56.154 299.1 4.9 296 8.5
2007-06-13 05:02:10 51°13.562 2°56.144 299.1 5.1 296 8.7
2007-06-13 05:02:15 51°13.565 2°56.133 299.4 5.3 297 8.8
2007-06-13 05:02:20 51°13.569 2°56.123 299.9 5.4 297 9
2007-06-13 05:02:25 51°13.572 2°56.112 300.6 5.5 298 9.2
2007-06-13 05:02:30 51°13.576 2°56.101 301.8 5.6 299 9.4
2007-06-13 05:02:35 51°13.58 2°56.09 302.6 5.9 300 9.6
2007-06-13 05:02:40 51°13.584 2°56.078 302.7 6.3 300 9.6
2007-06-13 05:02:45 51°13.589 2°56.065 303.1 6.7 300 9.7
2007-06-13 05:02:50 51°13.594 2°56.051 303.4 7.1 301 9.8
2007-06-13 05:02:55 51°13.6 2°56.037 303.8 7.8 301 9.7
2007-06-13 05:03:00 51°13.606 2°56.022 304.1 8.3 302 9.8
2007-06-13 05:03:05 51°13.612 2°56.006 304.8 8.6 303 9.7
2007-06-13 05:03:10 51°13.619 2°55.989 305.4 8.9 302 9.6
2007-06-13 05:03:15 51°13.625 2°55.972 305.5 9.2 303 9.7
2007-06-13 05:03:20 51°13.633 2°55.954 306 9.5 304 9.6
2007-06-13 05:03:25 51°13.64 2°55.936 307 9.7 303 9.6
2007-06-13 05:03:30 51°13.648 2°55.918 307 9.9 304 9.4
2007-06-13 05:03:35 51°13.656 2°55.9 307.4 10 305 9.4
2007-06-13 05:03:40 51°13.664 2°55.882 308.4 10.1 305 9.4
2007-06-13 05:03:45 51°13.672 2°55.863 308.8 10.2 305 9.3
2007-06-13 05:03:50 51°13.68 2°55.844 308.7 10.2 305 9.4
2007-06-13 05:03:55 51°13.688 2°55.826 309.1 10.2 307 -999
2007-06-13 05:04:00 51°13.696 2°55.809 309.9 10 307 9.5
2007-06-13 05:04:05 51°13.705 2°55.791 310.4 9.9 308 9.8
2007-06-13 05:04:10 51°13.714 2°55.775 311.3 9.8 310 10.3
2007-06-13 05:04:15 51°13.723 2°55.759 313 9.6 312 10.8
2007-06-13 05:04:20 51°13.732 2°55.744 314.6 9.6 314 10.5
2007-06-13 05:04:25 51°13.741 2°55.729 316.2 9.5 315 10.5
2007-06-13 05:04:30 51°13.751 2°55.714 317.9 9.5 317 9.9
2007-06-13 05:04:35 51°13.761 2°55.701 319.7 9.4 318 9.8
2007-06-13 05:04:40 51°13.771 2°55.688 321.5 9.3 321 9.8
2007-06-13 05:04:45 51°13.781 2°55.675 323.3 9.3 322 9.8
2007-06-13 05:04:50 51°13.791 2°55.664 325.6 9.2 325 9.8
2007-06-13 05:04:55 51°13.802 2°55.653 327.9 9.2 327 9.9
2007-06-13 05:05:00 51°13.813 2°55.643 330.4 9.2 330 9.8
2007-06-13 05:05:05 51°13.824 2°55.632 333.2 9.2 333 9.8
2007-06-13 05:05:10 51°13.836 2°55.624 336.4 9.2 336 9.8
2007-06-13 05:05:15 51°13.847 2°55.614 338.9 9.2 337 9.7
2007-06-13 05:05:20 51°13.858 2°55.605 339.7 9.1 335 9.7
2007-06-13 05:05:25 51°13.871 2°55.598 339.6 9.1 335 9.8
2007-06-13 05:05:30 51°13.884 2°55.591 339.6 9.1 336 9.5
2007-06-13 05:05:35 51°13.896 2°55.584 340.1 9.1 337 9.8
2007-06-13 05:05:40 51°13.908 2°55.575 340.4 9.2 336 9.7
2007-06-13 05:05:45 51°13.92 2°55.567 340.3 9.4 336 9.7
2007-06-13 05:05:50 51°13.931 2°55.558 340.2 9.5 336 9.7
2007-06-13 05:05:55 51°13.943 2°55.549 340.6 9.6 337 9.7
2007-06-13 05:06:00 51°13.956 2°55.541 340.6 9.7 336 9.7
2007-06-13 05:06:05 51°13.968 2°55.533 340.2 9.8 336 9.6
2007-06-13 05:06:10 51°13.981 2°55.524 340 9.9 336 9.7
2007-06-13 05:06:15 51°13.994 2°55.516 339.7 9.9 338 9.7
2007-06-13 05:06:20 51°14.006 2°55.508 341 9.9 338 9.8
2007-06-13 05:06:25 51°14.019 2°55.499 341.5 9.9 338 9.9
2007-06-13 05:06:30 51°14.031 2°55.49 341.1 9.9 338 9.7
2007-06-13 05:06:35 51°14.044 2°55.482 341.2 9.9 337 9.8
2007-06-13 05:06:40 51°14.057 2°55.473 341.1 9.9 336 9.7
2007-06-13 05:06:45 51°14.07 2°55.465 340.1 10 337 9.8
2007-06-13 05:06:50 51°14.082 2°55.456 340 10 337 9.8
2007-06-13 05:06:55 51°14.095 2°55.447 340.2 10 336 9.6
2007-06-13 05:07:00 51°14.108 2°55.438 340.1 10.1 336 -999
2007-06-13 05:07:05 51°14.12 2°55.428 339.5 10.1 336 9.8
2007-06-13 05:07:10 51°14.133 2°55.419 339.3 10.2 334 9.9
2007-06-13 05:07:15 51°14.146 2°55.408 338 10.5 333 9.9
2007-06-13 05:07:20 51°14.159 2°55.397 336.9 10.6 332 9.9
2007-06-13 05:07:25 51°14.171 2°55.385 336.5 10.8 331 9.8
2007-06-13 05:07:30 51°14.184 2°55.372 334.8 10.9 328 9.8
2007-06-13 05:07:35 51°14.197 2°55.359 332.9 11 328 5.2
2007-06-13 05:07:40 51°14.21 2°55.346 332.2 11.1 325 -999
2007-06-13 05:07:45 51°14.222 2°55.331 329.8 11.1 324 -999
2007-06-13 05:07:50 51°14.235 2°55.316 328 11.2 322 -999
2007-06-13 05:07:55 51°14.247 2°55.3 326.2 11.3 321 9.7
2007-06-13 05:08:00 51°14.259 2°55.285 325.3 11.3 320 9.6
2007-06-13 05:08:05 51°14.271 2°55.268 324.2 11.4 318 9.7
2007-06-13 05:08:10 51°14.282 2°55.251 322 11.4 316 9.7
2007-06-13 05:08:15 51°14.293 2°55.232 319.9 11.6 314 9.7
2007-06-13 05:08:20 51°14.305 2°55.214 318.6 11.7 315 9.4
2007-06-13 05:08:25 51°14.316 2°55.194 318.4 11.9 314 9.6
2007-06-13 05:08:30 51°14.327 2°55.175 317.9 12 314 9.4
2007-06-13 05:08:35 51°14.339 2°55.156 317.2 12.1 314 9.5
2007-06-13 05:08:40 51°14.351 2°55.137 317.1 12.1 315 8.7
2007-06-13 05:08:45 51°14.363 2°55.118 318.2 12.2 317 8.4
2007-06-13 05:08:50 51°14.375 2°55.1 319.6 12.1 318 7.9
2007-06-13 05:08:55 51°14.388 2°55.083 321.7 12.2 320 8.3
2007-06-13 05:09:00 51°14.401 2°55.065 322.9 12.3 318 8.8
2007-06-13 05:09:05 51°14.414 2°55.047 322.9 12.5 320 8.8
2007-06-13 05:09:10 51°14.428 2°55.029 323.6 12.7 320 8.8
2007-06-13 05:09:15 51°14.442 2°55.011 324.3 12.9 320 8.6
2007-06-13 05:09:20 51°14.455 2°54.992 325.1 13.1 319 8.7
2007-06-13 05:09:25 51°14.469 2°54.972 325.5 13.1 316 8.4
2007-06-13 05:09:30 51°14.481 2°54.951 323.6 13.2 313 8.2
2007-06-13 05:09:35 51°14.494 2°54.931 321.1 13.2 316 8.2
2007-06-13 05:09:40 51°14.508 2°54.911 322.2 13.1 319 8.1
2007-06-13 05:09:45 51°14.522 2°54.893 324.4 13 320 8
2007-06-13 05:09:50 51°14.536 2°54.875 325.9 13 322 8
2007-06-13 05:09:55 51°14.55 2°54.859 327.8 12.9 325 7.9
2007-06-13 05:10:00 51°14.566 2°54.843 330.9 12.8 326 7.9
2007-06-13 05:10:05 51°14.581 2°54.828 333.1 12.8 327 7.9
2007-06-13 05:10:10 51°14.596 2°54.813 334.4 12.8 327 7.8
2007-06-13 05:10:15 51°14.611 2°54.797 334.8 12.8 327 7.8
2007-06-13 05:10:20 51°14.625 2°54.781 334.3 12.9 326 7.8
2007-06-13 05:10:25 51°14.64 2°54.764 333.8 12.9 324 7.7
2007-06-13 05:10:30 51°14.654 2°54.747 332.6 12.9 322 7.7
2007-06-13 05:10:35 51°14.667 2°54.728 330.5 13 319 8
2007-06-13 05:10:40 51°14.68 2°54.708 327.3 13.1 317 7.9
2007-06-13 05:10:45 51°14.694 2°54.688 325.1 13.1 316 8
2007-06-13 05:10:50 51°14.706 2°54.667 324.3 13.2 314 8
2007-06-13 05:10:55 51°14.719 2°54.646 322.7 13.2 315 8.1
2007-06-13 05:11:00 51°14.732 2°54.625 322.1 13.2 314 8.2
2007-06-13 05:11:05 51°14.745 2°54.604 321.8 13.3 315 8
2007-06-13 05:11:10 51°14.758 2°54.584 321.8 13.2 315 7.9
2007-06-13 05:11:15 51°14.771 2°54.564 322.4 13.2 316 7.9
2007-06-13 05:11:20 51°14.784 2°54.543 322.9 13.2 316 8
2007-06-13 05:11:25 51°14.798 2°54.523 323.2 13.2 317 8.1
2007-06-13 05:11:30 51°14.811 2°54.503 323.8 13.1 317 7.8
2007-06-13 05:11:35 51°14.825 2°54.484 324.4 13.1 317 7.9
2007-06-13 05:11:40 51°14.838 2°54.464 324.4 13.1 317 8.1
2007-06-13 05:11:45 51°14.851 2°54.444 324.4 13.1 315 8
2007-06-13 05:11:50 51°14.863 2°54.422 323.3 13.1 312 8
2007-06-13 05:11:55 51°14.874 2°54.399 320.9 13.2 308 8
2007-06-13 05:12:00 51°14.884 2°54.374 316.9 13.2 302 7.8
2007-06-13 05:12:05 51°14.892 2°54.348 311.7 13.2 296 7.6
2007-06-13 05:12:10 51°14.899 2°54.321 305.5 13.1 292 7.5
2007-06-13 05:12:15 51°14.905 2°54.294 300.5 13.1 290 7.5
2007-06-13 05:12:20 51°14.911 2°54.267 297.1 13 289 7.4
2007-06-13 05:12:25 51°14.916 2°54.24 295.4 13 288 7.4
2007-06-13 05:12:30 51°14.921 2°54.212 294.5 13.1 286 5.5
2007-06-13 05:12:35 51°14.926 2°54.184 293.1 13.1 285 7.3
2007-06-13 05:12:40 51°14.93 2°54.156 291.8 13.1 283 7.2
2007-06-13 05:12:45 51°14.934 2°54.127 290.4 13.2 282 7.3
2007-06-13 05:12:50 51°14.937 2°54.099 289 13.2 281 7.3
2007-06-13 05:12:55 51°14.941 2°54.07 288.3 13.3 281 5.6
2007-06-13 05:13:00 51°14.945 2°54.041 287.5 13.4 281 7.5
2007-06-13 05:13:05 51°14.948 2°54.012 287.1 13.5 280 7.6
2007-06-13 05:13:10 51°14.951 2°53.982 286.7 13.5 281 7.5
2007-06-13 05:13:15 51°14.955 2°53.953 286.6 13.5 281 7.5
2007-06-13 05:13:20 51°14.959 2°53.924 287.3 13.5 282 7.5
2007-06-13 05:13:25 51°14.963 2°53.895 288 13.5 282 7.5
2007-06-13 05:13:30 51°14.967 2°53.866 288.6 13.5 283 7.6
2007-06-13 05:13:35 51°14.972 2°53.837 289 13.5 285 7.6
2007-06-13 05:13:40 51°14.977 2°53.808 290.4 13.5 286 7.7
2007-06-13 05:13:45 51°14.983 2°53.779 292.1 13.6 288 7.8
2007-06-13 05:13:50 51°14.989 2°53.751 293.8 13.6 289 7.8
2007-06-13 05:13:55 51°14.995 2°53.723 295.1 13.5 289 7.8
2007-06-13 05:14:00 51°15.002 2°53.695 296 13.5 290 7.8
2007-06-13 05:14:05 51°15.008 2°53.667 296.6 13.5 290 7.9
2007-06-13 05:14:10 51°15.015 2°53.639 297 13.5 290 7.9
2007-06-13 05:14:15 51°15.021 2°53.611 297.4 13.5 290 7.9
2007-06-13 05:14:20 51°15.027 2°53.583 297.3 13.5 289 8
2007-06-13 05:14:25 51°15.033 2°53.554 296.5 13.6 289 8.1
2007-06-13 05:14:30 51°15.039 2°53.526 295.7 13.6 287 8.1
2007-06-13 05:14:35 51°15.044 2°53.496 294.1 13.7 286 8.1
2007-06-13 05:14:40 51°15.048 2°53.467 292.4 13.7 284 8.1
2007-06-13 05:14:45 51°15.053 2°53.438 291 13.7 284 8.2
2007-06-13 05:14:50 51°15.057 2°53.408 290.1 13.7 283 8.2
2007-06-13 05:14:55 51°15.061 2°53.379 289.4 13.7 283 8.3
2007-06-13 05:15:00 51°15.066 2°53.349 289 13.7 283 8.3
2007-06-13 05:15:05 51°15.07 2°53.32 288.9 13.8 283 8.3
2007-06-13 05:15:10 51°15.074 2°53.29 288.9 13.8 283 8.3
2007-06-13 05:15:15 51°15.079 2°53.26 289.3 13.8 284 8.3
2007-06-13 05:15:20 51°15.084 2°53.231 290.2 13.8 285 8.4
2007-06-13 05:15:25 51°15.089 2°53.201 291.3 13.8 286 8.5
2007-06-13 05:15:30 51°15.095 2°53.172 292.3 13.8 286 8.5
2007-06-13 05:15:35 51°15.1 2°53.143 293.2 13.8 287 8.6
2007-06-13 05:15:40 51°15.106 2°53.114 293.8 13.8 287 8.6
2007-06-13 05:15:45 51°15.112 2°53.085 294.4 13.8 288 8.6
2007-06-13 05:15:50 51°15.117 2°53.056 294.6 13.8 287 8.6
2007-06-13 05:15:55 51°15.123 2°53.027 294.6 13.8 287 8.7
2007-06-13 05:16:00 51°15.128 2°52.998 294.3 13.8 286 8.7
2007-06-13 05:16:05 51°15.134 2°52.968 293.9 13.8 286 8.8
2007-06-13 05:16:10 51°15.139 2°52.938 293.3 13.9 285 9
2007-06-13 05:16:15 51°15.144 2°52.909 292.5 13.9 285 9
2007-06-13 05:16:20 51°15.148 2°52.879 291.8 13.9 284 9
2007-06-13 05:16:25 51°15.153 2°52.849 291.3 13.9 284 8.9
2007-06-13 05:16:30 51°15.158 2°52.82 291 13.9 284 9
2007-06-13 05:16:35 51°15.162 2°52.79 290.8 13.9 285 9
2007-06-13 05:16:40 51°15.167 2°52.76 291.1 13.9 284 9.1
2007-06-13 05:16:45 51°15.172 2°52.731 291.3 13.9 286 9.1
2007-06-13 05:16:50 51°15.177 2°52.701 292 13.9 285 9.2
2007-06-13 05:16:55 51°15.183 2°52.671 292.3 13.9 286 9.2
2007-06-13 05:17:00 51°15.188 2°52.642 292.7 13.9 286 9.3
2007-06-13 05:17:05 51°15.193 2°52.612 293.2 13.9 286 9.3
2007-06-13 05:17:10 51°15.199 2°52.583 293.2 13.9 286 9.4
2007-06-13 05:17:15 51°15.204 2°52.553 293.2 13.9 285 9.4
2007-06-13 05:17:20 51°15.209 2°52.524 292.7 13.9 285 9.4
2007-06-13 05:17:25 51°15.214 2°52.494 292.3 13.9 284 9.5
2007-06-13 05:17:30 51°15.219 2°52.464 291.7 13.9 284 9.5
2007-06-13 05:17:35 51°15.223 2°52.434 291.4 13.9 284 9.5
2007-06-13 05:17:40 51°15.228 2°52.404 291.2 13.9 284 9.6
2007-06-13 05:17:45 51°15.233 2°52.374 291.3 13.9 285 9.6
2007-06-13 05:17:50 51°15.238 2°52.345 291.7 13.9 285 9.7
2007-06-13 05:17:55 51°15.243 2°52.315 292.2 13.9 285 9.8
2007-06-13 05:18:00 51°15.248 2°52.285 292.5 13.9 285 9.8
2007-06-13 05:18:05 51°15.252 2°52.255 291.9 14 283 9.8
2007-06-13 05:18:10 51°15.257 2°52.225 290.8 13.9 283 9.9
2007-06-13 05:18:15 51°15.261 2°52.195 290.3 14 282 10
2007-06-13 05:18:20 51°15.265 2°52.165 289.4 14 282 10
2007-06-13 05:18:25 51°15.269 2°52.135 288.9 14 282 10.1
2007-06-13 05:18:30 51°15.273 2°52.104 288.4 14 282 10.1
2007-06-13 05:18:35 51°15.277 2°52.074 288.4 14 282 10.2
2007-06-13 05:18:40 51°15.281 2°52.044 288.3 14 282 10.2
2007-06-13 05:18:45 51°15.285 2°52.014 288.3 14 282 10.3
2007-06-13 05:18:50 51°15.289 2°51.984 288.5 14 282 10.3
2007-06-13 05:18:55 51°15.293 2°51.954 288.5 14 282 10.3
2007-06-13 05:19:00 51°15.297 2°51.923 288.8 14 282 10.4
2007-06-13 05:19:05 51°15.301 2°51.893 288.6 14 281 10.5
2007-06-13 05:19:10 51°15.304 2°51.862 288.4 14 279 10.5
2007-06-13 05:19:15 51°15.306 2°51.831 286.6 14 276 10.5
2007-06-13 05:19:20 51°15.308 2°51.801 283.5 14 275 10.6
2007-06-13 05:19:25 51°15.309 2°51.77 281.6 14 274 10.6
2007-06-13 05:19:30 51°15.31 2°51.739 280.2 14.1 273 10.6
2007-06-13 05:19:35 51°15.311 2°51.708 279.3 14.1 272 10.7
2007-06-13 05:19:40 51°15.311 2°51.677 278.5 14.1 272 10.7
2007-06-13 05:19:45 51°15.312 2°51.646 277.9 14.1 271 10.8
2007-06-13 05:19:50 51°15.312 2°51.614 277.2 14.1 271 10.8
2007-06-13 05:19:55 51°15.312 2°51.583 277 14.1 271 10.8
2007-06-13 05:20:00 51°15.313 2°51.552 276.8 14.1 272 10.9
2007-06-13 05:20:05 51°15.314 2°51.521 277.2 14.2 272 10.8
2007-06-13 05:20:10 51°15.314 2°51.489 277.3 14.1 272 10.8
2007-06-13 05:20:15 51°15.315 2°51.458 277.4 14.1 272 10.9
2007-06-13 05:20:20 51°15.315 2°51.427 277.5 14.1 272 10.9
2007-06-13 05:20:25 51°15.316 2°51.396 277.5 14.1 271 10.9
2007-06-13 05:20:30 51°15.316 2°51.365 277.3 14.1 272 10.9
2007-06-13 05:20:35 51°15.317 2°51.333 277.3 14.1 272 10.9
2007-06-13 05:20:40 51°15.318 2°51.302 277.3 14.1 272 11
2007-06-13 05:20:45 51°15.318 2°51.271 277.2 14.2 272 11
2007-06-13 05:20:50 51°15.319 2°51.24 277.2 14.1 272 11
2007-06-13 05:20:55 51°15.319 2°51.209 277.3 14.1 271 11
2007-06-13 05:21:00 51°15.32 2°51.177 277.2 14.2 272 11
2007-06-13 05:21:05 51°15.32 2°51.146 277.2 14.1 271 11
2007-06-13 05:21:10 51°15.321 2°51.114 277.2 14.2 272 11.1
2007-06-13 05:21:15 51°15.322 2°51.083 277.2 14.1 272 11
2007-06-13 05:21:20 51°15.323 2°51.051 277.4 14.1 272 11.1
2007-06-13 05:21:25 51°15.323 2°51.02 277.5 14.1 272 11.1
2007-06-13 05:21:30 51°15.324 2°50.989 277.5 14.1 272 11.1
2007-06-13 05:21:35 51°15.324 2°50.958 277.6 14.1 272 11.1
2007-06-13 05:21:40 51°15.325 2°50.927 277.8 14.1 272 11.1
2007-06-13 05:21:45 51°15.326 2°50.896 277.8 14.1 271 11.2
2007-06-13 05:21:50 51°15.327 2°50.865 277.6 14.1 272 11.2
2007-06-13 05:21:55 51°15.327 2°50.833 277.5 14.1 272 11.2
2007-06-13 05:22:00 51°15.328 2°50.802 277.5 14.1 272 11.2
2007-06-13 05:22:05 51°15.328 2°50.771 277.5 14.1 272 11.3
2007-06-13 05:22:10 51°15.329 2°50.74 277.2 14.1 272 11.3
2007-06-13 05:22:15 51°15.329 2°50.709 277.4 14.2 272 11.3
2007-06-13 05:22:20 51°15.33 2°50.678 277.4 14.1 272 11.3
2007-06-13 05:22:25 51°15.331 2°50.647 277.7 14.1 272 11.3
2007-06-13 05:22:30 51°15.332 2°50.616 277.7 14.2 273 11.4
2007-06-13 05:22:35 51°15.332 2°50.585 277.9 14.1 272 11.3
2007-06-13 05:22:40 51°15.333 2°50.554 277.9 14.1 273 11.3
2007-06-13 05:22:45 51°15.334 2°50.522 277.9 14.1 272 11.3
2007-06-13 05:22:50 51°15.335 2°50.491 278.1 14.1 273 11.4
2007-06-13 05:22:55 51°15.336 2°50.46 278.4 14.1 272 11.4
2007-06-13 05:23:00 51°15.337 2°50.428 278 14.1 272 11.4
2007-06-13 05:23:05 51°15.338 2°50.396 277.9 14.1 272 11.4
2007-06-13 05:23:10 51°15.339 2°50.365 277.5 14.1 272 11.3
2007-06-13 05:23:15 51°15.339 2°50.334 277.5 14.1 272 11.4
2007-06-13 05:23:20 51°15.34 2°50.303 277.4 14.1 272 11.4
2007-06-13 05:23:25 51°15.341 2°50.271 277.9 14.1 272 11.4
2007-06-13 05:23:30 51°15.342 2°50.24 277.6 14.1 272 11.4
2007-06-13 05:23:35 51°15.342 2°50.209 277.4 14.1 272 11.4
2007-06-13 05:23:40 51°15.343 2°50.177 277.4 14.1 272 11.4
2007-06-13 05:23:45 51°15.344 2°50.146 277.3 14.1 272 11.4
2007-06-13 05:23:50 51°15.345 2°50.115 277.3 14.1 272 11.4
2007-06-13 05:23:55 51°15.345 2°50.084 277.4 14.1 272 11.5
2007-06-13 05:24:00 51°15.346 2°50.053 277.8 14.1 273 11.4
2007-06-13 05:24:05 51°15.347 2°50.023 278.1 14.1 273 11.4
2007-06-13 05:24:10 51°15.348 2°49.992 278.3 14.1 273 11.4
2007-06-13 05:24:15 51°15.349 2°49.961 277.9 14.1 273 11.5
2007-06-13 05:24:20 51°15.349 2°49.931 278.1 14 272 11.5
2007-06-13 05:24:25 51°15.35 2°49.9 278 14 273 11.5
2007-06-13 05:24:30 51°15.351 2°49.869 277.9 14 273 11.5
2007-06-13 05:24:35 51°15.353 2°49.837 278.2 14 273 11.5
2007-06-13 05:24:40 51°15.354 2°49.805 278.3 14 273 11.5
2007-06-13 05:24:45 51°15.355 2°49.775 278.5 14 273 11.5
2007-06-13 05:24:50 51°15.356 2°49.745 278.6 14 273 11.5
2007-06-13 05:24:55 51°15.356 2°49.714 278 14 271 11.6
2007-06-13 05:25:00 51°15.356 2°49.683 276.9 14 271 11.6
2007-06-13 05:25:05 51°15.356 2°49.652 276 14 270 11.6
2007-06-13 05:25:10 51°15.356 2°49.621 275.6 14 270 11.6
2007-06-13 05:25:15 51°15.356 2°49.59 274.9 14 270 11.6
2007-06-13 05:25:20 51°15.356 2°49.559 274.9 14 270 11.6
2007-06-13 05:25:25 51°15.356 2°49.528 274.5 14 270 11.6
2007-06-13 05:25:30 51°15.356 2°49.497 274.6 14 270 11.6
2007-06-13 05:25:35 51°15.356 2°49.466 274.7 14 269 11.7
2007-06-13 05:25:40 51°15.356 2°49.435 274.3 14 270 11.6
2007-06-13 05:25:45 51°15.355 2°49.404 274.3 13.9 269 11.6
2007-06-13 05:25:50 51°15.355 2°49.373 274.3 14 269 11.7
2007-06-13 05:25:55 51°15.355 2°49.343 274.1 14 269 11.7
2007-06-13 05:26:00 51°15.354 2°49.312 273.9 13.9 269 11.7
2007-06-13 05:26:05 51°15.354 2°49.281 273.8 13.9 269 11.7
2007-06-13 05:26:10 51°15.354 2°49.25 273.9 14 269 11.7
2007-06-13 05:26:15 51°15.354 2°49.219 274.1 14 270 11.7
2007-06-13 05:26:20 51°15.354 2°49.188 274.3 14 270 11.7
2007-06-13 05:26:25 51°15.354 2°49.157 274.3 14 269 11.7
2007-06-13 05:26:30 51°15.354 2°49.126 274 14 269 11.7
2007-06-13 05:26:35 51°15.354 2°49.095 273.7 14 270 11.7
2007-06-13 05:26:40 51°15.354 2°49.064 273.9 14 270 11.7
2007-06-13 05:26:45 51°15.353 2°49.034 274.1 14 269 11.8
2007-06-13 05:26:50 51°15.353 2°49.003 274.1 14 269 11.7
2007-06-13 05:26:55 51°15.353 2°48.972 273.6 14 269 11.7
2007-06-13 05:27:00 51°15.353 2°48.941 273.8 14 270 11.7
2007-06-13 05:27:05 51°15.353 2°48.91 273.9 14 270 11.7
2007-06-13 05:27:10 51°15.353 2°48.879 274.3 13.9 270 11.7
2007-06-13 05:27:15 51°15.353 2°48.848 274.3 14 270 11.7
2007-06-13 05:27:20 51°15.353 2°48.817 274.5 14 270 11.6
2007-06-13 05:27:25 51°15.352 2°48.786 274.3 14 269 11.5
2007-06-13 05:27:30 51°15.352 2°48.755 273.8 14 269 11.5
2007-06-13 05:27:35 51°15.352 2°48.725 273.8 13.9 269 11.4
2007-06-13 05:27:40 51°15.352 2°48.694 273.7 13.9 270 11.2
2007-06-13 05:27:45 51°15.352 2°48.663 273.9 13.9 270 11.2
2007-06-13 05:27:50 51°15.352 2°48.632 274.1 13.9 270 10.9
2007-06-13 05:27:55 51°15.352 2°48.601 274.3 13.9 270 10.8
2007-06-13 05:28:00 51°15.352 2°48.57 274.8 13.8 270 10.7
2007-06-13 05:28:05 51°15.351 2°48.54 274.7 13.9 270 10.5
2007-06-13 05:28:10 51°15.351 2°48.51 274.3 13.8 269 10.3
2007-06-13 05:28:15 51°15.351 2°48.479 273.9 13.8 269 10
2007-06-13 05:28:20 51°15.35 2°48.449 273.6 13.8 270 9.9
2007-06-13 05:28:25 51°15.35 2°48.417 273.6 13.8 269 9.7
2007-06-13 05:28:30 51°15.35 2°48.386 274.1 13.7 270 9.6
2007-06-13 05:28:35 51°15.35 2°48.356 274.3 13.7 270 9.4
2007-06-13 05:28:40 51°15.35 2°48.326 274.4 13.7 270 9.2
2007-06-13 05:28:45 51°15.35 2°48.296 274.6 13.6 270 9.2
2007-06-13 05:28:50 51°15.35 2°48.266 274.7 13.6 270 9
2007-06-13 05:28:55 51°15.35 2°48.236 274.9 13.6 270 9
2007-06-13 05:29:00 51°15.35 2°48.206 274.8 13.6 270 8.8
2007-06-13 05:29:05 51°15.351 2°48.175 274.9 13.6 270 8.7
2007-06-13 05:29:10 51°15.351 2°48.145 275 13.6 270 8.8
2007-06-13 05:29:15 51°15.351 2°48.115 274.9 13.6 270 8.7
2007-06-13 05:29:20 51°15.351 2°48.085 274.6 13.6 269 8.6
2007-06-13 05:29:25 51°15.351 2°48.056 274.5 13.6 270 8.7
2007-06-13 05:29:30 51°15.35 2°48.025 274.5 13.6 269 8.7
2007-06-13 05:29:35 51°15.35 2°47.995 273.9 13.6 269 8.6
2007-06-13 05:29:40 51°15.349 2°47.965 273.6 13.6 269 8.6
2007-06-13 05:29:45 51°15.349 2°47.935 273.5 13.6 269 8.6
2007-06-13 05:29:50 51°15.348 2°47.904 273.2 13.7 269 8.6
2007-06-13 05:29:55 51°15.348 2°47.874 273.4 13.7 270 8.6
2007-06-13 05:30:00 51°15.348 2°47.844 274.1 13.7 270 8.7
2007-06-13 05:30:05 51°15.349 2°47.814 274.7 13.7 271 8.6
2007-06-13 05:30:10 51°15.349 2°47.784 275.5 13.7 271 8.7
2007-06-13 05:30:15 51°15.35 2°47.754 276.1 13.7 272 8.7
2007-06-13 05:30:20 51°15.35 2°47.724 276.5 13.7 271 8.7
2007-06-13 05:30:25 51°15.351 2°47.694 276.5 13.7 271 8.7
2007-06-13 05:30:30 51°15.35 2°47.663 275.8 13.8 269 8.8
2007-06-13 05:30:35 51°15.35 2°47.633 274.4 13.8 268 8.8
2007-06-13 05:30:40 51°15.348 2°47.602 273.1 13.8 267 8.9
2007-06-13 05:30:45 51°15.348 2°47.572 271.8 13.8 267 8.9
2007-06-13 05:30:50 51°15.346 2°47.541 271.4 13.8 266 9
2007-06-13 05:30:55 51°15.345 2°47.511 270.6 13.8 266 9.1
2007-06-13 05:31:00 51°15.343 2°47.48 270.5 13.8 266 9.1
2007-06-13 05:31:05 51°15.342 2°47.45 270.2 13.8 266 9.1
2007-06-13 05:31:10 51°15.341 2°47.419 270.4 13.9 267 9.2
2007-06-13 05:31:15 51°15.34 2°47.389 270.7 13.8 267 9.3
2007-06-13 05:31:20 51°15.339 2°47.358 271.1 13.9 267 9.3
2007-06-13 05:31:25 51°15.338 2°47.328 271.5 13.9 268 9.3
2007-06-13 05:31:30 51°15.337 2°47.297 272.1 13.9 267 9.4
2007-06-13 05:31:35 51°15.336 2°47.266 271.9 13.9 268 9.5
2007-06-13 05:31:40 51°15.335 2°47.235 271.8 13.9 267 9.7
2007-06-13 05:31:45 51°15.334 2°47.205 271.4 14 267 9.8
2007-06-13 05:31:50 51°15.333 2°47.174 271.4 14 267 9.9
2007-06-13 05:31:55 51°15.332 2°47.143 271.2 14 267 10
2007-06-13 05:32:00 51°15.331 2°47.112 271.2 14 267 10.1
2007-06-13 05:32:05 51°15.33 2°47.082 271.1 14 267 10.3
2007-06-13 05:32:10 51°15.329 2°47.051 271.3 14 267 10.3
2007-06-13 05:32:15 51°15.328 2°47.02 271.4 14 267 10.4
2007-06-13 05:32:20 51°15.327 2°46.989 271.4 14 267 10.5
2007-06-13 05:32:25 51°15.326 2°46.958 271.3 14 267 10.6
2007-06-13 05:32:30 51°15.325 2°46.928 271 14 267 10.6
2007-06-13 05:32:35 51°15.323 2°46.897 270.8 14 266 10.7
2007-06-13 05:32:40 51°15.322 2°46.866 270.9 14 267 10.6
2007-06-13 05:32:45 51°15.321 2°46.835 270.8 14 267 10.9
2007-06-13 05:32:50 51°15.32 2°46.804 270.8 14 266 10.8
2007-06-13 05:32:55 51°15.319 2°46.773 270.9 14 267 11
2007-06-13 05:33:00 51°15.318 2°46.742 271.2 14 266 11.2
2007-06-13 05:33:05 51°15.317 2°46.711 271.3 14 267 11.3
2007-06-13 05:33:10 51°15.315 2°46.68 271.4 14 267 11.4
2007-06-13 05:33:15 51°15.315 2°46.649 271.6 14.1 267 11.6
2007-06-13 05:33:20 51°15.313 2°46.619 271.6 14 267 11.7
2007-06-13 05:33:25 51°15.312 2°46.588 271.4 14.1 266 11.9
2007-06-13 05:33:30 51°15.311 2°46.557 271.1 14.1 267 11.9
2007-06-13 05:33:35 51°15.31 2°46.526 271 14.1 266 12
2007-06-13 05:33:40 51°15.309 2°46.494 270.9 14.1 266 12.2
2007-06-13 05:33:45 51°15.307 2°46.463 270.7 14.1 266 12.3
2007-06-13 05:33:50 51°15.306 2°46.432 270.7 14.1 266 12.4
2007-06-13 05:33:55 51°15.305 2°46.401 270.5 14.1 266 12.6
2007-06-13 05:34:00 51°15.303 2°46.37 270.7 14.1 266 12.7
2007-06-13 05:34:05 51°15.302 2°46.339 270.8 14.1 267 12.8
2007-06-13 05:34:10 51°15.301 2°46.308 271.1 14.1 267 12.9
2007-06-13 05:34:15 51°15.3 2°46.277 271.2 14.1 267 13
2007-06-13 05:34:20 51°15.299 2°46.246 271.1 14.1 266 13
2007-06-13 05:34:25 51°15.298 2°46.215 270.7 14.1 266 13.1
2007-06-13 05:34:30 51°15.297 2°46.183 270.7 14.1 267 13.2
2007-06-13 05:34:35 51°15.296 2°46.152 271.3 14.1 267 13.3
2007-06-13 05:34:40 51°15.295 2°46.12 271.3 14.1 267 13.4
2007-06-13 05:34:45 51°15.293 2°46.089 271.1 14.1 267 13.5
2007-06-13 05:34:50 51°15.292 2°46.058 271.1 14.1 266 13.6
2007-06-13 05:34:55 51°15.291 2°46.027 271 14.1 267 13.7
2007-06-13 05:35:00 51°15.29 2°45.996 271 14.1 266 13.7
2007-06-13 05:35:05 51°15.288 2°45.965 270.8 14.1 266 13.7
2007-06-13 05:35:10 51°15.287 2°45.934 270.8 14.1 266 13.8
2007-06-13 05:35:15 51°15.286 2°45.902 270.8 14.1 266 14
2007-06-13 05:35:20 51°15.285 2°45.871 270.8 14.2 266 14.1
2007-06-13 05:35:25 51°15.283 2°45.84 270.7 14.1 266 14.3
2007-06-13 05:35:30 51°15.282 2°45.809 271.2 14.1 266 14.3
2007-06-13 05:35:35 51°15.28 2°45.778 271 14.2 266 14.4
2007-06-13 05:35:40 51°15.279 2°45.747 271 14.1 267 14.5
2007-06-13 05:35:45 51°15.278 2°45.716 271.6 14.1 266 14.5
2007-06-13 05:35:50 51°15.277 2°45.684 271.4 14.2 267 14.6
2007-06-13 05:35:55 51°15.276 2°45.653 271.2 14.1 266 14.6
2007-06-13 05:36:00 51°15.275 2°45.622 271.3 14.1 267 14.7
2007-06-13 05:36:05 51°15.273 2°45.591 271.1 14.2 266 14.7
2007-06-13 05:36:10 51°15.273 2°45.559 271.1 14.2 267 14.9
2007-06-13 05:36:15 51°15.272 2°45.528 271.5 14.1 267 15
2007-06-13 05:36:20 51°15.27 2°45.497 271.5 14.2 267 15
2007-06-13 05:36:25 51°15.269 2°45.465 271.3 14.2 266 15.1
2007-06-13 05:36:30 51°15.268 2°45.434 271 14.2 266 15.1
2007-06-13 05:36:35 51°15.266 2°45.403 270.7 14.2 266 15.2
2007-06-13 05:36:40 51°15.265 2°45.372 270.6 14.2 266 15.2
2007-06-13 05:36:45 51°15.263 2°45.341 270.6 14.2 266 15.3
2007-06-13 05:36:50 51°15.262 2°45.309 270.6 14.2 266 15.5
2007-06-13 05:36:55 51°15.261 2°45.278 270.7 14.2 266 15.5
2007-06-13 05:37:00 51°15.259 2°45.246 270.9 14.3 266 15.6
2007-06-13 05:37:05 51°15.258 2°45.215 271.1 14.2 267 15.7
2007-06-13 05:37:10 51°15.257 2°45.184 271.5 14.2 266 15.9
2007-06-13 05:37:15 51°15.256 2°45.152 271.2 14.3 267 16
2007-06-13 05:37:20 51°15.255 2°45.121 271.3 14.3 266 16.1
2007-06-13 05:37:25 51°15.253 2°45.089 271.4 14.3 266 16.1
2007-06-13 05:37:30 51°15.252 2°45.057 271.1 14.3 266 16.2
2007-06-13 05:37:35 51°15.251 2°45.026 271 14.3 266 16.3
2007-06-13 05:37:40 51°15.25 2°44.995 271 14.3 267 16.5
2007-06-13 05:37:45 51°15.248 2°44.964 271.4 14.3 267 16.5
2007-06-13 05:37:50 51°15.247 2°44.932 271.4 14.3 267 16.7
2007-06-13 05:37:55 51°15.246 2°44.901 271.1 14.3 266 16.8
2007-06-13 05:38:00 51°15.244 2°44.869 271 14.3 266 16.9
2007-06-13 05:38:05 51°15.243 2°44.838 270.9 14.3 266 17.1
2007-06-13 05:38:10 51°15.242 2°44.807 270.9 14.3 267 17
2007-06-13 05:38:15 51°15.24 2°44.775 271.2 14.3 267 17.1
2007-06-13 05:38:20 51°15.239 2°44.744 271.3 14.2 267 17
2007-06-13 05:38:25 51°15.238 2°44.712 271.4 14.3 266 17.1
2007-06-13 05:38:30 51°15.237 2°44.681 271.2 14.2 267 17.1
2007-06-13 05:38:35 51°15.235 2°44.65 271.3 14.2 266 17.2
2007-06-13 05:38:40 51°15.234 2°44.619 271.2 14.2 267 17.1
2007-06-13 05:38:45 51°15.233 2°44.587 271.1 14.3 266 17.2
2007-06-13 05:38:50 51°15.232 2°44.556 271.1 14.2 266 17.1
2007-06-13 05:38:55 51°15.23 2°44.524 271.1 14.2 266 17
2007-06-13 05:39:00 51°15.229 2°44.493 270.9 14.2 266 17
2007-06-13 05:39:05 51°15.228 2°44.462 270.9 14.2 266 17
2007-06-13 05:39:10 51°15.226 2°44.43 271 14.2 266 16.7
2007-06-13 05:39:15 51°15.225 2°44.399 270.9 14.2 266 16.7
2007-06-13 05:39:20 51°15.224 2°44.368 270.7 14.2 266 16.6
2007-06-13 05:39:25 51°15.222 2°44.336 270.8 14.3 266 16.4
2007-06-13 05:39:30 51°15.222 2°44.305 271 14.2 267 16.3
2007-06-13 05:39:35 51°15.22 2°44.273 271.5 14.2 266 16.2
2007-06-13 05:39:40 51°15.219 2°44.242 271.5 14.2 267 16
2007-06-13 05:39:45 51°15.218 2°44.211 271.3 14.1 266 15.9
2007-06-13 05:39:50 51°15.216 2°44.179 271.1 14.1 266 15.8
2007-06-13 05:39:55 51°15.215 2°44.148 271 14.1 265 15.7
2007-06-13 05:40:00 51°15.213 2°44.117 270.7 14 266 15.4
2007-06-13 05:40:05 51°15.212 2°44.086 270.8 14 266 15.3
2007-06-13 05:40:10 51°15.211 2°44.056 271.2 14 266 15.1
2007-06-13 05:40:15 51°15.21 2°44.025 271.2 13.9 266 15
2007-06-13 05:40:20 51°15.208 2°43.994 271.3 13.9 266 14.7
2007-06-13 05:40:25 51°15.207 2°43.964 271.3 13.9 266 14.6
2007-06-13 05:40:30 51°15.206 2°43.933 271.3 13.9 266 14.3
2007-06-13 05:40:35 51°15.204 2°43.902 271.4 13.9 266 14.2
2007-06-13 05:40:40 51°15.203 2°43.872 271.4 13.9 266 13.8
2007-06-13 05:40:45 51°15.201 2°43.841 271.3 13.9 266 13.6
2007-06-13 05:40:50 51°15.2 2°43.811 271.2 13.8 266 13.5
2007-06-13 05:40:55 51°15.199 2°43.78 271.2 13.8 265 13.4
2007-06-13 05:41:00 51°15.197 2°43.75 271.1 13.8 265 13.1
2007-06-13 05:41:05 51°15.195 2°43.719 270.8 13.8 265 13.1
2007-06-13 05:41:10 51°15.194 2°43.689 270.7 13.8 266 12.9
2007-06-13 05:41:15 51°15.192 2°43.659 270.7 13.8 265 12.8
2007-06-13 05:41:20 51°15.191 2°43.628 270.8 13.8 266 12.7
2007-06-13 05:41:25 51°15.189 2°43.598 271 13.8 266 12.6
2007-06-13 05:41:30 51°15.188 2°43.567 271.3 13.8 266 11.5
2007-06-13 05:41:35 51°15.186 2°43.537 271.5 13.7 265 11
2007-06-13 05:41:40 51°15.185 2°43.507 271.3 13.7 265 11.8
2007-06-13 05:41:45 51°15.183 2°43.476 271.2 13.8 266 12
2007-06-13 05:41:50 51°15.182 2°43.446 271.3 13.8 266 12
2007-06-13 05:41:55 51°15.181 2°43.415 271.6 13.8 266 12
2007-06-13 05:42:00 51°15.179 2°43.385 271.8 13.8 266 12
2007-06-13 05:42:05 51°15.178 2°43.355 271.4 13.8 266 12.1
2007-06-13 05:42:10 51°15.176 2°43.324 271.3 13.8 266 12.1
2007-06-13 05:42:15 51°15.175 2°43.294 271.4 13.8 266 12.2
2007-06-13 05:42:20 51°15.173 2°43.263 271.4 13.8 266 12.1
2007-06-13 05:42:25 51°15.172 2°43.233 271.5 13.8 265 12.2
2007-06-13 05:42:30 51°15.17 2°43.203 271.4 13.8 265 12.2
2007-06-13 05:42:35 51°15.169 2°43.172 271.2 13.8 265 12.3
2007-06-13 05:42:40 51°15.168 2°43.142 271.2 13.8 266 12.3
2007-06-13 05:42:45 51°15.166 2°43.111 271.8 13.8 266 12.3
2007-06-13 05:42:50 51°15.165 2°43.081 271.8 13.8 266 12.5
2007-06-13 05:42:55 51°15.163 2°43.05 272 13.8 266 12.4
2007-06-13 05:43:00 51°15.162 2°43.02 271.7 13.8 266 12.3
2007-06-13 05:43:05 51°15.161 2°42.99 271.7 13.8 268 12.4
2007-06-13 05:43:10 51°15.161 2°42.959 272.9 13.7 269 12.4
2007-06-13 05:43:15 51°15.161 2°42.929 274.4 13.7 271 12.4
2007-06-13 05:43:20 51°15.161 2°42.899 275.8 13.7 271 12.5
2007-06-13 05:43:25 51°15.162 2°42.868 276.9 13.7 272 12.6
2007-06-13 05:43:30 51°15.163 2°42.838 277.9 13.6 273 12.6
2007-06-13 05:43:35 51°15.164 2°42.808 278.6 13.7 273 12.6
2007-06-13 05:43:40 51°15.165 2°42.778 278.8 13.7 274 12.7
2007-06-13 05:43:45 51°15.167 2°42.748 279.4 13.6 274 12.6
2007-06-13 05:43:50 51°15.169 2°42.718 280.5 13.6 277 12.8
2007-06-13 05:43:55 51°15.171 2°42.688 282.2 13.7 277 12.5
2007-06-13 05:44:00 51°15.174 2°42.658 283.4 13.6 279 12.6
2007-06-13 05:44:05 51°15.177 2°42.628 284.7 13.6 278 12.7
2007-06-13 05:44:10 51°15.18 2°42.599 285.1 13.6 280 12.5
2007-06-13 05:44:15 51°15.183 2°42.569 285.7 13.6 279 12.2
2007-06-13 05:44:20 51°15.186 2°42.54 286.3 13.5 279 11.5
2007-06-13 05:44:25 51°15.189 2°42.51 286.4 13.5 279 10.8
2007-06-13 05:44:30 51°15.192 2°42.481 286.4 13.5 279 11.8
2007-06-13 05:44:35 51°15.195 2°42.452 285.9 13.5 280 12.3
2007-06-13 05:44:40 51°15.199 2°42.422 285.8 13.6 280 12.3
2007-06-13 05:44:45 51°15.202 2°42.393 286.2 13.5 280 11.9
2007-06-13 05:44:50 51°15.205 2°42.363 286.2 13.5 280 11.5
2007-06-13 05:44:55 51°15.208 2°42.334 286 13.5 279 11.7
2007-06-13 05:45:00 51°15.211 2°42.304 285.9 13.5 280 11.4
2007-06-13 05:45:05 51°15.216 2°42.276 285.9 13.4 284 9.5
2007-06-13 05:45:10 51°15.221 2°42.248 289.5 13.2 286 10
2007-06-13 05:45:15 51°15.227 2°42.22 292.7 13.2 290 10.6
2007-06-13 05:45:20 51°15.234 2°42.193 295.7 13.3 291 10.7
2007-06-13 05:45:25 51°15.241 2°42.166 297.8 13.3 293 10.6
2007-06-13 05:45:30 51°15.248 2°42.139 299.7 13.3 294 10.5
2007-06-13 05:45:35 51°15.256 2°42.112 300.8 13.2 295 10.4
2007-06-13 05:45:40 51°15.264 2°42.086 301.5 13.2 295 10.3
2007-06-13 05:45:45 51°15.271 2°42.059 301.9 13.2 295 10.3
2007-06-13 05:45:50 51°15.279 2°42.033 302.1 13.2 295 9.9
2007-06-13 05:45:55 51°15.287 2°42.006 302.4 13.3 295 10
2007-06-13 05:46:00 51°15.294 2°41.979 302.2 13.3 295 9.9
2007-06-13 05:46:05 51°15.302 2°41.953 302.2 13.2 295 9.6
2007-06-13 05:46:10 51°15.31 2°41.926 302.5 13.2 295 9.8
2007-06-13 05:46:15 51°15.317 2°41.9 302.6 13.2 294 9.9
2007-06-13 05:46:20 51°15.325 2°41.873 302 13.2 295 9.8
2007-06-13 05:46:25 51°15.333 2°41.846 301.4 13.3 294 9.6
2007-06-13 05:46:30 51°15.34 2°41.82 301.5 13.3 295 10.1
2007-06-13 05:46:35 51°15.348 2°41.793 301.9 13.3 295 9.8
2007-06-13 05:46:40 51°15.356 2°41.767 301.9 13.2 295 10
2007-06-13 05:46:45 51°15.364 2°41.74 302.4 13.3 294 9.8
2007-06-13 05:46:50 51°15.371 2°41.713 302 13.3 295 9.9
2007-06-13 05:46:55 51°15.379 2°41.686 301.8 13.3 294 9.9
2007-06-13 05:47:00 51°15.386 2°41.659 301.2 13.3 294 9.9
2007-06-13 05:47:05 51°15.394 2°41.633 300.7 13.2 294 9.8
2007-06-13 05:47:10 51°15.402 2°41.606 300.8 13.2 295 9.9
2007-06-13 05:47:15 51°15.41 2°41.58 300.9 13.2 297 9.7
2007-06-13 05:47:20 51°15.419 2°41.556 302.8 13.1 302 9.9
2007-06-13 05:47:25 51°15.429 2°41.532 307 13 304 9.8
2007-06-13 05:47:30 51°15.441 2°41.509 310.5 12.9 307 9.8
2007-06-13 05:47:35 51°15.452 2°41.487 313.2 12.9 308 9.7
2007-06-13 05:47:40 51°15.463 2°41.465 314.9 12.9 310 9.6
2007-06-13 05:47:45 51°15.475 2°41.444 316.4 12.8 311 9.6
2007-06-13 05:47:50 51°15.487 2°41.422 317.5 12.9 312 9.4
2007-06-13 05:47:55 51°15.499 2°41.401 318.3 12.9 311 9.4
2007-06-13 05:48:00 51°15.51 2°41.379 318.6 12.9 312 9.4
2007-06-13 05:48:05 51°15.522 2°41.358 318.6 12.9 311 9.9
2007-06-13 05:48:10 51°15.534 2°41.336 318.6 12.9 311 9.5
2007-06-13 05:48:15 51°15.546 2°41.315 318.2 13 311 9.9
2007-06-13 05:48:20 51°15.558 2°41.293 318.2 13 311 9.9
2007-06-13 05:48:25 51°15.57 2°41.272 318.3 13 312 9.9
2007-06-13 05:48:30 51°15.582 2°41.25 318.6 13 312 9.8
2007-06-13 05:48:35 51°15.594 2°41.229 319.2 13 313 10.2
2007-06-13 05:48:40 51°15.607 2°41.209 319.9 13 314 10.7
2007-06-13 05:48:45 51°15.619 2°41.188 320.5 13 313 10.4
2007-06-13 05:48:50 51°15.632 2°41.167 320.4 13 314 10.3
2007-06-13 05:48:55 51°15.644 2°41.146 320.3 13 313 10.4
2007-06-13 05:49:00 51°15.656 2°41.125 320.1 13 313 10.4
2007-06-13 05:49:05 51°15.668 2°41.104 320 13 313 10.8
2007-06-13 05:49:10 51°15.681 2°41.082 320 13 313 10.9
2007-06-13 05:49:15 51°15.693 2°41.061 320 13 313 11.4
2007-06-13 05:49:20 51°15.705 2°41.04 319.7 13 313 11
2007-06-13 05:49:25 51°15.718 2°41.019 319.8 13 313 11.5
2007-06-13 05:49:30 51°15.73 2°40.998 320.1 13 312 11.5
2007-06-13 05:49:35 51°15.742 2°40.976 319.6 13.1 312 11.9
2007-06-13 05:49:40 51°15.754 2°40.955 319.4 13.1 312 11.9
2007-06-13 05:49:45 51°15.766 2°40.933 319.4 13 312 12.2
2007-06-13 05:49:50 51°15.778 2°40.912 319.6 13.1 312 12.6
2007-06-13 05:49:55 51°15.79 2°40.89 319.7 13.1 312 12.8
2007-06-13 05:50:00 51°15.803 2°40.869 319.4 13 312 12.8
2007-06-13 05:50:05 51°15.815 2°40.847 319.5 13 311 13.2
2007-06-13 05:50:10 51°15.827 2°40.825 319.3 13.1 312 13.8
2007-06-13 05:50:15 51°15.839 2°40.804 319.2 13.1 313 14
2007-06-13 05:50:20 51°15.851 2°40.782 319.5 13 312 14.3
2007-06-13 05:50:25 51°15.863 2°40.761 319.8 13 313 14.8
2007-06-13 05:50:30 51°15.875 2°40.74 319.9 13.1 312 15.1
2007-06-13 05:50:35 51°15.887 2°40.719 320 13 312 15.3
2007-06-13 05:50:40 51°15.899 2°40.697 320 13 311 15.7
2007-06-13 05:50:45 51°15.911 2°40.676 319.9 13.1 312 16.1
2007-06-13 05:50:50 51°15.923 2°40.654 320.1 13.1 311 16.2
2007-06-13 05:50:55 51°15.935 2°40.632 320.1 12.9 312 16.5
2007-06-13 05:51:00 51°15.947 2°40.611 319.8 12.9 311 16.9
2007-06-13 05:51:05 51°15.959 2°40.589 319.4 12.9 312 16.9
2007-06-13 05:51:10 51°15.971 2°40.568 319.7 12.9 312 17.2
2007-06-13 05:51:15 51°15.983 2°40.547 320.1 12.8 313 17.6
2007-06-13 05:51:20 51°15.995 2°40.526 320.9 12.9 313 17.7
2007-06-13 05:51:25 51°16.008 2°40.505 321.3 12.9 313 17.8
2007-06-13 05:51:30 51°16.02 2°40.485 321.5 12.9 314 18
2007-06-13 05:51:35 51°16.032 2°40.464 322.2 12.9 313 18.2
2007-06-13 05:51:40 51°16.044 2°40.443 322.1 13 313 18.4
2007-06-13 05:51:45 51°16.057 2°40.422 322.1 13 313 18.5
2007-06-13 05:51:50 51°16.069 2°40.401 322.2 13 313 18.9
2007-06-13 05:51:55 51°16.081 2°40.379 321.8 13 312 18.9
2007-06-13 05:52:00 51°16.093 2°40.359 321.9 13 313 19
2007-06-13 05:52:05 51°16.105 2°40.337 321.9 13 312 19.1
2007-06-13 05:52:10 51°16.118 2°40.316 322 13 313 19.1
2007-06-13 05:52:15 51°16.13 2°40.295 322 13 313 19.2
2007-06-13 05:52:20 51°16.142 2°40.274 322.1 12.9 313 19.4
2007-06-13 05:52:25 51°16.154 2°40.253 322.2 13 313 19.5
2007-06-13 05:52:30 51°16.166 2°40.232 322 13 312 19.7
2007-06-13 05:52:35 51°16.179 2°40.211 321.5 12.9 313 19.6
2007-06-13 05:52:40 51°16.191 2°40.19 322 13 312 19.8
2007-06-13 05:52:45 51°16.203 2°40.168 321.8 13 312 19.9
2007-06-13 05:52:50 51°16.215 2°40.146 321.8 13.1 312 20
2007-06-13 05:52:55 51°16.227 2°40.125 321.5 13.1 312 20
2007-06-13 05:53:00 51°16.239 2°40.103 321.5 13 311 20
2007-06-13 05:53:05 51°16.251 2°40.082 321.3 13 312 19.9
2007-06-13 05:53:10 51°16.263 2°40.061 321.2 13.1 312 19.8
2007-06-13 05:53:15 51°16.275 2°40.04 322.1 13.1 312 19.8
2007-06-13 05:53:20 51°16.287 2°40.018 321.7 13 312 19.9
2007-06-13 05:53:25 51°16.3 2°39.997 321.7 13 313 19.8
2007-06-13 05:53:30 51°16.312 2°39.975 322.1 13 312 19.8
2007-06-13 05:53:35 51°16.324 2°39.954 322.1 13.1 312 19.9
2007-06-13 05:53:40 51°16.336 2°39.932 321.8 13.1 312 20
2007-06-13 05:53:45 51°16.348 2°39.911 321.7 13.1 311 20
2007-06-13 05:53:50 51°16.36 2°39.889 321.5 13 312 19.9
2007-06-13 05:53:55 51°16.372 2°39.868 321.6 13.1 312 20.1
2007-06-13 05:54:00 51°16.384 2°39.846 321.5 13 312 19.9
2007-06-13 05:54:05 51°16.396 2°39.825 321.9 13 312 19.6
2007-06-13 05:54:10 51°16.408 2°39.803 321.5 13.1 312 19.6
2007-06-13 05:54:15 51°16.421 2°39.782 321.5 13 312 19.4
2007-06-13 05:54:20 51°16.433 2°39.76 321.7 13.1 312 18.9
2007-06-13 05:54:25 51°16.445 2°39.739 321.8 13.1 312 18.7
2007-06-13 05:54:30 51°16.457 2°39.717 321.7 13.1 312 18.9
2007-06-13 05:54:35 51°16.469 2°39.695 321.5 13.1 311 18.5
2007-06-13 05:54:40 51°16.481 2°39.674 321.5 13.2 312 18.5
2007-06-13 05:54:45 51°16.493 2°39.652 321.5 13.2 311 18.1
2007-06-13 05:54:50 51°16.505 2°39.63 321.6 13.1 312 17.5
2007-06-13 05:54:55 51°16.517 2°39.609 321.5 13 312 17.3
2007-06-13 05:55:00 51°16.529 2°39.587 321.7 13.1 313 17
2007-06-13 05:55:05 51°16.542 2°39.566 322.5 13.1 312 17.5
2007-06-13 05:55:10 51°16.554 2°39.545 322.1 13 313 17.6
2007-06-13 05:55:15 51°16.566 2°39.523 322.3 13.1 311 17
2007-06-13 05:55:20 51°16.578 2°39.501 321.9 13.1 312 16.5
2007-06-13 05:55:25 51°16.59 2°39.48 321.6 13 312 16.3
2007-06-13 05:55:30 51°16.602 2°39.458 321.6 13 311 15.9
2007-06-13 05:55:35 51°16.613 2°39.436 321.5 13.1 309 14.8
2007-06-13 05:55:40 51°16.624 2°39.412 319 13.1 306 14.4
2007-06-13 05:55:45 51°16.634 2°39.388 316.4 13.1 304 13.8
2007-06-13 05:55:50 51°16.644 2°39.363 314.2 13.2 302 13.5
2007-06-13 05:55:55 51°16.654 2°39.339 312.3 13.3 301 13.1
2007-06-13 05:56:00 51°16.663 2°39.314 310.8 13.2 300 12.6
2007-06-13 05:56:05 51°16.672 2°39.288 309.7 13.3 300 12.3
2007-06-13 05:56:10 51°16.681 2°39.262 308.8 13.3 299 12.5
2007-06-13 05:56:15 51°16.69 2°39.237 308.4 13.4 299 11.7
2007-06-13 05:56:20 51°16.699 2°39.211 308 13.4 299 11.5
2007-06-13 05:56:25 51°16.709 2°39.185 307.7 13.3 300 11.1
2007-06-13 05:56:30 51°16.718 2°39.16 308.4 13.4 302 10.9
2007-06-13 05:56:35 51°16.728 2°39.135 309.5 13.4 301 10.7
2007-06-13 05:56:40 51°16.738 2°39.11 310.1 13.3 303 10.3
2007-06-13 05:56:45 51°16.748 2°39.086 310.9 13.3 303 10.5
2007-06-13 05:56:50 51°16.758 2°39.061 311.6 13.3 303 10.1
2007-06-13 05:56:55 51°16.768 2°39.036 311.9 13.3 303 9.9
2007-06-13 05:57:00 51°16.778 2°39.012 311.9 13.3 303 9.8
2007-06-13 05:57:05 51°16.788 2°38.988 311.6 13.3 304 9.6
2007-06-13 05:57:10 51°16.799 2°38.963 311.7 13.3 303 9.3
2007-06-13 05:57:15 51°16.809 2°38.938 311.4 13.3 304 9.1
2007-06-13 05:57:20 51°16.819 2°38.914 311.5 13.3 303 8.8
2007-06-13 05:57:25 51°16.829 2°38.889 311.3 13.3 304 8.9
2007-06-13 05:57:30 51°16.839 2°38.865 311.5 13.3 304 8.7
2007-06-13 05:57:35 51°16.849 2°38.841 311.8 13.3 303 8.5
2007-06-13 05:57:40 51°16.86 2°38.816 311.6 13.3 304 8.3
2007-06-13 05:57:45 51°16.87 2°38.791 311.9 13.3 303 8.2
2007-06-13 05:57:50 51°16.88 2°38.767 311.8 13.4 304 8.7
2007-06-13 05:57:55 51°16.89 2°38.742 311.3 13.4 304 8.3
2007-06-13 05:58:00 51°16.901 2°38.718 311.3 13.3 304 7.5
2007-06-13 05:58:05 51°16.911 2°38.693 311.5 13.4 304 8.5
2007-06-13 05:58:10 51°16.921 2°38.669 311.8 13.4 304 7.1
2007-06-13 05:58:15 51°16.932 2°38.644 311.9 13.4 304 8.5
2007-06-13 05:58:20 51°16.942 2°38.619 311.4 13.7 304 9.7
2007-06-13 05:58:25 51°16.953 2°38.594 311.3 13.8 306 12.1
2007-06-13 05:58:30 51°16.965 2°38.569 312.4 14.1 306 12.6
2007-06-13 05:58:35 51°16.977 2°38.544 312.9 14.2 307 14.7
2007-06-13 05:58:40 51°16.989 2°38.519 314 14.1 307 16.4
2007-06-13 05:58:45 51°17.001 2°38.495 315 13.9 308 18
2007-06-13 05:58:50 51°17.012 2°38.471 315.4 13.9 307 20.1
2007-06-13 05:58:55 51°17.024 2°38.446 315.7 13.8 308 21
2007-06-13 05:59:00 51°17.035 2°38.422 315.8 13.7 307 21.7
2007-06-13 05:59:05 51°17.047 2°38.398 315.8 13.6 307 22.3
2007-06-13 05:59:10 51°17.058 2°38.375 316 13.6 308 22.7
2007-06-13 05:59:15 51°17.07 2°38.351 316 13.5 308 23
2007-06-13 05:59:20 51°17.081 2°38.328 316.1 13.4 308 23.4
2007-06-13 05:59:25 51°17.093 2°38.305 316.4 13.4 311 24.3
2007-06-13 05:59:30 51°17.105 2°38.282 318.6 13.4 310 24.5
2007-06-13 05:59:35 51°17.117 2°38.26 319.1 13.4 311 24.9
2007-06-13 05:59:40 51°17.13 2°38.238 320 13.4 311 25.3
2007-06-13 05:59:45 51°17.142 2°38.216 320.4 13.3 312 25.2
2007-06-13 05:59:50 51°17.155 2°38.194 321.1 13.4 313 25.2
2007-06-13 05:59:55 51°17.167 2°38.172 321.7 13.3 313 25.1
2007-06-13 06:00:00 51°17.18 2°38.151 322.2 13.4 314 25.5
2007-06-13 06:00:05 51°17.193 2°38.13 322.6 13.3 315 25.6
2007-06-13 06:00:10 51°17.206 2°38.109 324.2 13.4 315 25.5
2007-06-13 06:00:15 51°17.22 2°38.089 324.9 13.3 316 25.5
2007-06-13 06:00:20 51°17.233 2°38.068 325.8 13.4 316 25.6
2007-06-13 06:00:25 51°17.247 2°38.048 325.7 13.3 318 25.5
2007-06-13 06:00:30 51°17.26 2°38.028 326.9 13.3 317 25.5
2007-06-13 06:00:35 51°17.274 2°38.009 326.7 13.3 318 25.5
2007-06-13 06:00:40 51°17.288 2°37.989 327.2 13.3 318 25.6
2007-06-13 06:00:45 51°17.302 2°37.97 328 13.3 319 25.6
2007-06-13 06:00:50 51°17.316 2°37.95 328.6 13.3 318 25.7
2007-06-13 06:00:55 51°17.33 2°37.931 328.8 13.3 319 25.8
2007-06-13 06:01:00 51°17.344 2°37.912 328.9 13.2 321 25.8
2007-06-13 06:01:05 51°17.358 2°37.893 329.4 13.3 319 25.8
2007-06-13 06:01:10 51°17.372 2°37.874 328.2 13.3 320 25.9
2007-06-13 06:01:15 51°17.386 2°37.855 329.5 13.2 320 25.9
2007-06-13 06:01:20 51°17.4 2°37.836 329.5 13.3 319 25.9
2007-06-13 06:01:25 51°17.414 2°37.818 328.7 13.2 322 25.9
2007-06-13 06:01:30 51°17.428 2°37.8 329.9 13.2 321 26
2007-06-13 06:01:35 51°17.443 2°37.782 330.9 13.1 323 25.9
2007-06-13 06:01:40 51°17.457 2°37.764 331.5 13.1 321 25.8
2007-06-13 06:01:45 51°17.472 2°37.747 331.5 13 322 25.7
2007-06-13 06:01:50 51°17.486 2°37.729 331.6 13 322 25.7
2007-06-13 06:01:55 51°17.5 2°37.71 331.5 13 322 25.7
2007-06-13 06:02:00 51°17.515 2°37.693 331.6 12.9 322 25.8
2007-06-13 06:02:05 51°17.529 2°37.675 332.1 13 321 26
2007-06-13 06:02:10 51°17.543 2°37.657 332 13 322 25.8
2007-06-13 06:02:15 51°17.557 2°37.639 331.9 13.1 321 26.2
2007-06-13 06:02:20 51°17.571 2°37.621 331.7 13 322 26
2007-06-13 06:02:25 51°17.586 2°37.603 332 13 321 26
2007-06-13 06:02:30 51°17.6 2°37.586 331.3 13 322 26.2
2007-06-13 06:02:35 51°17.614 2°37.568 332.1 13 322 26.2
2007-06-13 06:02:40 51°17.628 2°37.55 332.1 13 322 26.1
2007-06-13 06:02:45 51°17.642 2°37.532 332.2 13 322 26.2
2007-06-13 06:02:50 51°17.657 2°37.514 331.8 13 322 26.1
2007-06-13 06:02:55 51°17.671 2°37.497 331.9 12.9 322 24.8
2007-06-13 06:03:00 51°17.685 2°37.479 332.5 13 321 24.4
2007-06-13 06:03:05 51°17.699 2°37.461 331.9 12.9 322 24.2
2007-06-13 06:03:10 51°17.713 2°37.443 332.2 12.8 322 25.1
2007-06-13 06:03:15 51°17.727 2°37.426 331.8 12.9 322 24.9
2007-06-13 06:03:20 51°17.741 2°37.409 332.1 12.9 322 24.8
2007-06-13 06:03:25 51°17.755 2°37.391 332.6 12.9 322 25
2007-06-13 06:03:30 51°17.769 2°37.373 332.3 12.9 322 25.2
2007-06-13 06:03:35 51°17.783 2°37.356 332.1 12.9 322 25
2007-06-13 06:03:40 51°17.797 2°37.338 332.2 13 321 24.5
2007-06-13 06:03:45 51°17.811 2°37.32 331.8 12.9 321 24.4
2007-06-13 06:03:50 51°17.825 2°37.303 331.8 12.8 323 24.3
2007-06-13 06:03:55 51°17.839 2°37.285 332.4 12.9 321 23.8
2007-06-13 06:04:00 51°17.853 2°37.268 332.1 12.9 322 23.7
2007-06-13 06:04:05 51°17.867 2°37.25 332.2 12.9 320 23.5
2007-06-13 06:04:10 51°17.881 2°37.232 331.5 12.9 323 22.4
2007-06-13 06:04:15 51°17.894 2°37.214 331.9 13 320 22.2
2007-06-13 06:04:20 51°17.908 2°37.197 331.6 12.8 323 22.5
2007-06-13 06:04:25 51°17.922 2°37.179 332.3 12.8 321 22.6
2007-06-13 06:04:30 51°17.936 2°37.161 331.7 12.8 322 22
2007-06-13 06:04:35 51°17.95 2°37.143 331.3 12.9 320 21.8
2007-06-13 06:04:40 51°17.963 2°37.125 330.9 12.8 322 21.5
2007-06-13 06:04:45 51°17.977 2°37.107 331.5 12.8 320 21.8
2007-06-13 06:04:50 51°17.991 2°37.089 331.1 12.8 321 21.1
2007-06-13 06:04:55 51°18.005 2°37.07 331.1 12.8 320 21.1
2007-06-13 06:05:00 51°18.019 2°37.053 330.7 12.8 322 20.4
2007-06-13 06:05:05 51°18.032 2°37.035 331.2 12.8 320 20
2007-06-13 06:05:10 51°18.047 2°37.018 331.3 12.8 322 19.6
2007-06-13 06:05:15 51°18.06 2°37 331.9 12.8 321 19
2007-06-13 06:05:20 51°18.074 2°36.982 332.4 12.8 321 18.9
2007-06-13 06:05:25 51°18.088 2°36.964 331.8 12.9 321 18.9
2007-06-13 06:05:30 51°18.102 2°36.946 331.7 12.9 319 18.6
2007-06-13 06:05:35 51°18.115 2°36.928 330.8 12.8 321 18.3
2007-06-13 06:05:40 51°18.129 2°36.91 331 12.9 321 18.3
2007-06-13 06:05:45 51°18.143 2°36.892 331.6 12.9 321 18
2007-06-13 06:05:50 51°18.157 2°36.875 331.4 12.8 322 17.5
2007-06-13 06:05:55 51°18.171 2°36.856 332.1 12.9 320 17.1
2007-06-13 06:06:00 51°18.184 2°36.838 331.6 12.9 322 17.9
2007-06-13 06:06:05 51°18.198 2°36.821 331.7 12.9 322 17.8
2007-06-13 06:06:10 51°18.212 2°36.803 332.1 12.9 321 17.7
2007-06-13 06:06:15 51°18.227 2°36.785 332.1 13 321 17.2
2007-06-13 06:06:20 51°18.24 2°36.767 331.7 12.9 321 17.3
2007-06-13 06:06:25 51°18.254 2°36.749 331.5 13 321 17.1
2007-06-13 06:06:30 51°18.268 2°36.731 331.6 12.9 322 16.6
2007-06-13 06:06:35 51°18.282 2°36.713 331.3 12.9 321 16
2007-06-13 06:06:40 51°18.296 2°36.695 331.6 13 321 15.8
2007-06-13 06:06:45 51°18.31 2°36.677 331.2 13 322 15.6
2007-06-13 06:06:50 51°18.324 2°36.659 331.6 13.1 320 15.7
2007-06-13 06:06:55 51°18.339 2°36.641 331.4 13 322 14
2007-06-13 06:07:00 51°18.352 2°36.622 331.4 13.1 320 14.1
2007-06-13 06:07:05 51°18.366 2°36.604 330.6 13.1 321 15.2
2007-06-13 06:07:10 51°18.381 2°36.585 331 13.2 321 15.7
2007-06-13 06:07:15 51°18.395 2°36.567 331.2 13.1 321 15.1
2007-06-13 06:07:20 51°18.409 2°36.549 331.2 13.1 321 15.2
2007-06-13 06:07:25 51°18.423 2°36.53 331.3 13.2 321 17.3
2007-06-13 06:07:30 51°18.437 2°36.512 331.1 13.2 321 18.3
2007-06-13 06:07:35 51°18.452 2°36.494 331.3 13.2 322 18.9
2007-06-13 06:07:40 51°18.466 2°36.475 331.4 13.3 321 18.5
2007-06-13 06:07:45 51°18.48 2°36.457 331.4 13.2 322 18
2007-06-13 06:07:50 51°18.494 2°36.439 331.6 13.2 320 19.1
2007-06-13 06:07:55 51°18.509 2°36.421 331.1 13.2 322 19.8
2007-06-13 06:08:00 51°18.523 2°36.402 331.5 13.2 321 16.3
2007-06-13 06:08:05 51°18.537 2°36.384 331.3 13.2 321 17.9
2007-06-13 06:08:10 51°18.551 2°36.365 331 13.3 321 18.6
2007-06-13 06:08:15 51°18.566 2°36.346 330.7 13.4 321 19.6
2007-06-13 06:08:20 51°18.58 2°36.328 330.9 13.3 322 20.6
2007-06-13 06:08:25 51°18.595 2°36.31 331.3 13.2 323 22.4
2007-06-13 06:08:30 51°18.609 2°36.292 331.9 13.2 322 23.6
2007-06-13 06:08:35 51°18.624 2°36.274 331.5 13.3 322 23.7
2007-06-13 06:08:40 51°18.638 2°36.257 331.4 13.2 322 22.4
2007-06-13 06:08:45 51°18.652 2°36.238 331.3 13.2 320 19.9
2007-06-13 06:08:50 51°18.666 2°36.219 330.3 13.2 321 15
2007-06-13 06:08:55 51°18.68 2°36.2 330.6 13.3 319 17.2
2007-06-13 06:09:00 51°18.694 2°36.181 330.1 13.3 322 18.6
2007-06-13 06:09:05 51°18.708 2°36.162 330.7 13.3 320 20.1
2007-06-13 06:09:10 51°18.723 2°36.144 331.1 13.3 321 21.1
2007-06-13 06:09:15 51°18.737 2°36.126 331.2 13.3 321 21.3
2007-06-13 06:09:20 51°18.752 2°36.108 331.6 13.2 321 21.5
2007-06-13 06:09:25 51°18.766 2°36.09 331.6 13.2 322 21.2
2007-06-13 06:09:30 51°18.78 2°36.071 331.9 13.2 320 20.3
2007-06-13 06:09:35 51°18.794 2°36.053 330.9 13 321 18.3
2007-06-13 06:09:40 51°18.808 2°36.034 330.9 13.1 319 17
2007-06-13 06:09:45 51°18.822 2°36.016 330.3 13.1 321 17.5
2007-06-13 06:09:50 51°18.836 2°35.998 330.7 13 321 18.7
2007-06-13 06:09:55 51°18.85 2°35.979 331.6 13.1 321 19.4
2007-06-13 06:10:00 51°18.864 2°35.962 331.7 13 322 20.7
2007-06-13 06:10:05 51°18.878 2°35.944 332.1 13 322 21.4
2007-06-13 06:10:10 51°18.893 2°35.926 331.5 13 322 21.6
2007-06-13 06:10:15 51°18.907 2°35.908 331.8 13.1 321 21
2007-06-13 06:10:20 51°18.921 2°35.89 331.5 13.1 321 21.1
2007-06-13 06:10:25 51°18.935 2°35.872 331.5 13.1 321 20.6
2007-06-13 06:10:30 51°18.949 2°35.853 331 13.2 321 20.8
2007-06-13 06:10:35 51°18.963 2°35.835 331 13.1 321 20
2007-06-13 06:10:40 51°18.977 2°35.817 331 13.1 320 20.5
2007-06-13 06:10:45 51°18.991 2°35.798 330.9 13.1 321 20.8
2007-06-13 06:10:50 51°19.005 2°35.78 330.8 13.1 321 20.9
2007-06-13 06:10:55 51°19.02 2°35.762 331 13.1 320 20.5
2007-06-13 06:11:00 51°19.034 2°35.744 330.8 13.1 321 19.9
2007-06-13 06:11:05 51°19.048 2°35.725 331.1 13.1 320 18.7
2007-06-13 06:11:10 51°19.062 2°35.707 330.9 13 322 17.6
2007-06-13 06:11:15 51°19.076 2°35.689 331.2 13 322 20.6
2007-06-13 06:11:20 51°19.091 2°35.674 331.8 12.8 327 22.6
2007-06-13 06:11:25 51°19.106 2°35.66 335.4 12.7 330 23.2
2007-06-13 06:11:30 51°19.122 2°35.648 339.5 12.5 335 22.6
2007-06-13 06:11:35 51°19.138 2°35.636 343.3 12.6 336 21.4
2007-06-13 06:11:40 51°19.154 2°35.626 345 12.5 338 21.5
2007-06-13 06:11:45 51°19.17 2°35.616 346.9 12.5 338 21.2
2007-06-13 06:11:50 51°19.186 2°35.607 348.2 12.5 341 21.4
2007-06-13 06:11:55 51°19.203 2°35.598 349.8 12.4 342 21
2007-06-13 06:12:00 51°19.219 2°35.588 350.7 12.4 341 18.2
2007-06-13 06:12:05 51°19.236 2°35.58 350.8 12.5 342 20
2007-06-13 06:12:10 51°19.252 2°35.57 350.5 12.5 340 20.9
2007-06-13 06:12:15 51°19.268 2°35.562 350.4 12.6 342 21.2
2007-06-13 06:12:20 51°19.285 2°35.552 350.9 12.6 340 21.3
2007-06-13 06:12:25 51°19.301 2°35.544 350.8 12.6 342 19.8
2007-06-13 06:12:30 51°19.318 2°35.534 350.6 12.6 341 18
2007-06-13 06:12:35 51°19.334 2°35.525 351.6 12.6 341 18.7
2007-06-13 06:12:40 51°19.351 2°35.515 350.3 12.6 341 19.7
2007-06-13 06:12:45 51°19.367 2°35.506 350.6 12.6 340 20.4
2007-06-13 06:12:50 51°19.384 2°35.497 349.9 12.5 341 20.4
2007-06-13 06:12:55 51°19.4 2°35.487 350.6 12.6 340 20.6
2007-06-13 06:13:00 51°19.417 2°35.478 350.6 12.6 341 18.7
2007-06-13 06:13:05 51°19.433 2°35.469 350.5 12.5 340 18.9
2007-06-13 06:13:10 51°19.449 2°35.46 350.2 12.5 341 19.7
2007-06-13 06:13:15 51°19.466 2°35.451 350.7 12.6 341 19.5
2007-06-13 06:13:20 51°19.482 2°35.441 350.9 12.5 341 19.4
2007-06-13 06:13:25 51°19.499 2°35.431 350.6 12.6 339 18.7
2007-06-13 06:13:30 51°19.515 2°35.421 349.7 12.6 340 18.6
2007-06-13 06:13:35 51°19.531 2°35.412 349.6 12.6 341 18
2007-06-13 06:13:40 51°19.548 2°35.402 350.3 12.6 338 18.2
2007-06-13 06:13:45 51°19.564 2°35.393 350 12.5 341 18.4
2007-06-13 06:13:50 51°19.58 2°35.383 350.4 12.6 338 18.2
2007-06-13 06:13:55 51°19.597 2°35.374 350.2 12.6 341 18.3
2007-06-13 06:14:00 51°19.613 2°35.364 350.9 12.6 338 16.1
2007-06-13 06:14:05 51°19.629 2°35.355 350 12.5 340 17.4
2007-06-13 06:14:10 51°19.646 2°35.345 350.1 12.6 339 17.8
2007-06-13 06:14:15 51°19.662 2°35.336 350 12.5 340 17.2
2007-06-13 06:14:20 51°19.678 2°35.326 349.8 12.4 341 16.1
2007-06-13 06:14:25 51°19.695 2°35.317 350.6 12.5 342 16.6
2007-06-13 06:14:30 51°19.711 2°35.307 351.8 12.6 339 16.8
2007-06-13 06:14:35 51°19.727 2°35.298 350.6 12.5 341 16.6
2007-06-13 06:14:40 51°19.743 2°35.288 350.3 12.6 338 16.3
2007-06-13 06:14:45 51°19.76 2°35.279 349.8 12.6 340 15.9
2007-06-13 06:14:50 51°19.776 2°35.269 350 12.5 341 15.8
2007-06-13 06:14:55 51°19.792 2°35.259 351.2 12.6 338 16.1
2007-06-13 06:15:00 51°19.809 2°35.25 349.9 12.4 341 16
2007-06-13 06:15:05 51°19.825 2°35.24 350.3 12.5 339 15.6
2007-06-13 06:15:10 51°19.841 2°35.23 349.8 12.5 339 13.8